Location: Ottawa
(45.4167°N, 75.7000°W)
Time: 14:45:44
(UTC-04:00)

Tiangong 2 - Pass Details

Date: 16 October 2017
Orbit: 388 x 392 km, 42.8° (Epoch: 17 October)

Event Time Altitude Azimuth Distance (km) Brightness Sun altitude
Exits shadow 06:13:06 22° 250° (WSW) 918 2.4 -12.6°
Maximum altitude 06:14:45 40° 193° (SSW) 594 1.9 -12.3°
Drops below altitude 10° 06:17:46 10° 122° (ESE) 1,419 4.9 -11.8°
Sets 06:19:55 0° 115° (ESE) 2,274 6.3 -11.4°
